Weather History for Kenai, AK

Change the Weather History Date:

Friday, September 6, 2013

  Actual Average Record
Temperature  
Mean Temperature 48 °F -  
Max Temperature 53 °F 57 °F 70 °F (1963)
Min Temperature 46 °F 39 °F 25 °F (1976)
Degree Days  
Heating Degree Days 16    
Moisture  
Dew Point 47 °F    
Average Humidity 92    
Maximum Humidity 100    
Minimum Humidity 83    
Precipitation  
Precipitation 0.47 in - - ()
Sea Level Pressure  
Sea Level Pressure 29.60 in    
Wind  
Wind Speed 15 mph (NNE)    
Max Wind Speed 28 mph    
Max Gust Speed 37 mph    
Visibility 9 miles    
Events Rain    
Averages and records for this station are not official NWS values.
T = Trace of Precipitation, MM = Missing Value Source: NWS Daily Summary

Daily Weather History Graph

Daily Weather History Graph

Search for Another Location

Airport:

Trip Planner

Search our weather history database for the weather conditions in past years. The results will help you decide how hot, cold, wet, or windy it might be!

Date:

Astronomy

Sep. 06, 2013 Rise Set
Actual Time 7:11 AM AKDT 8:53 PM AKDT
Civil Twilight 6:26 AM AKDT 9:37 PM AKDT
Nautical Twilight 5:30 AM AKDT 10:33 PM AKDT
Astronomical Twilight 4:19 AM AKDT 11:42 PM AKDT
Moon 9:11 AM AKDT (9/6) 8:39 PM AKDT (9/6)
Length of Visible Light 15h 10m
Length of Day
13h 41m
New Moon, 2% of the Moon is Illuminated
Sep 6
New Moon
Sep 12
First Quarter
Sep 19
Full
Sep 26
Last Quarter
Oct 4
New

Hourly Weather History & Observations

Time (AKDT) Temp. Windchill Dew Point Humidity Pressure Visibility Wind Dir Wind Speed Gust Speed Precip Events Conditions
12:53 AM 48.0 °F - 46.0 °F 93% 29.99 in 10.0 mi NE 6.9 mph - N/A   Overcast
1:53 AM 46.0 °F 42.5 °F 45.0 °F 96% 29.98 in 10.0 mi NE 6.9 mph - N/A   Clear
2:53 AM 46.9 °F - 46.0 °F 97% 29.95 in 10.0 mi NNE 8.1 mph - N/A   Clear
3:53 AM 48.0 °F - 46.0 °F 93% 29.91 in 10.0 mi NNE 8.1 mph - N/A   Clear
4:53 AM 48.9 °F - 45.0 °F 86% 29.88 in 10.0 mi NNE 10.4 mph - N/A   Mostly Cloudy
5:53 AM 48.9 °F - 45.0 °F 86% 29.84 in 10.0 mi NNE 16.1 mph - N/A   Overcast
6:53 AM 50.0 °F - 46.9 °F 89% 29.78 in 10.0 mi NNE 20.7 mph 27.6 mph N/A   Mostly Cloudy
7:53 AM 48.9 °F - 46.9 °F 93% 29.74 in 5.0 mi NNE 17.3 mph 28.8 mph 0.02 in Rain Rain
8:53 AM 48.0 °F - 46.9 °F 96% 29.67 in 3.0 mi NNE 23.0 mph - 0.17 in Rain Rain
9:53 AM 48.0 °F - 46.0 °F 93% 29.63 in 10.0 mi NNE 24.2 mph 34.5 mph 0.08 in Rain Light Rain
10:53 AM 46.9 °F - 46.0 °F 97% 29.59 in 8.0 mi NNE 24.2 mph 31.1 mph 0.02 in Rain Light Rain
11:18 AM 46.4 °F 37.7 °F 46.4 °F 100% 29.56 in 7.0 mi NNE 26.5 mph 35.7 mph 0.01 in Rain Light Rain
11:53 AM 46.9 °F - 46.0 °F 97% 29.55 in 6.0 mi NNE 25.3 mph 36.8 mph 0.04 in Rain Light Rain
12:53 PM 48.0 °F - 48.0 °F 100% 29.54 in 10.0 mi NNE 19.6 mph 33.4 mph 0.04 in Rain Light Rain
1:53 PM 50.0 °F - 46.9 °F 89% 29.51 in 10.0 mi NNE 26.5 mph 35.7 mph 0.00 in   Overcast
2:53 PM 50.0 °F - 46.0 °F 86% 29.48 in 10.0 mi NNE 27.6 mph 34.5 mph N/A   Overcast
3:53 PM 51.1 °F - 46.0 °F 83% 29.46 in 10.0 mi NNE 20.7 mph 33.4 mph N/A   Overcast
4:31 PM 50.0 °F - 46.4 °F 87% 29.44 in 8.0 mi NNE 23.0 mph 31.1 mph 0.01 in Rain Light Rain
4:53 PM 48.9 °F - 46.9 °F 93% 29.44 in 8.0 mi NNE 21.9 mph - 0.02 in Rain Light Rain
5:40 PM 50.0 °F - 46.4 °F 87% 29.42 in 10.0 mi NNE 20.7 mph 28.8 mph 0.00 in   Overcast
5:53 PM 50.0 °F - 46.9 °F 89% 29.42 in 10.0 mi NNE 18.4 mph 25.3 mph 0.00 in   Overcast
6:53 PM 50.0 °F - 48.0 °F 93% 29.43 in 10.0 mi NNE 12.7 mph - N/A   Overcast
7:53 PM 50.0 °F - 46.9 °F 89% 29.40 in 10.0 mi NNE 18.4 mph 26.5 mph N/A   Overcast
8:04 PM 50.0 °F - 46.4 °F 87% 29.39 in 10.0 mi NNE 17.3 mph - N/A   Overcast
8:53 PM 50.0 °F - 46.9 °F 89% 29.41 in 10.0 mi NNE 17.3 mph 24.2 mph N/A   Overcast
9:53 PM 48.9 °F - 48.0 °F 97% 29.42 in 10.0 mi NNE 13.8 mph - 0.03 in Rain Light Rain
10:53 PM 48.9 °F - 48.0 °F 97% 29.42 in 10.0 mi NNE 15.0 mph - 0.03 in Rain Light Rain
11:53 PM 50.0 °F - 48.0 °F 93% 29.43 in 8.0 mi NNE 17.3 mph 24.2 mph 0.02 in Rain Light Rain